Flag for U.S.A. Weather past 2 weeks in Durham, North Carolina, U.S.A.

Now
74 °F

Partly sunny.


Feels Like: 77 °F
Forecast: 60 / 84 °F
Wind: 9 mph from Southwest

Location: Raleigh-Durham International Airport

Current Time: May 25, 2015 at 10:47:40 AM

Latest Report: May 25, 2015 at 9:51 AM


Visibility: 10 mi

Pressure: 30.34 "Hg

Humidity: 62%

Dew point: 60 °F

Location of DurhamLocation

Historic Weather in Durham — Graph

°F

Durham temperature yesterday

Maximum temperature yesterday: 81 °F (at 1:51 PM)
Minimum temperature yesterday: 56 °F (at 4:51 AM)
Average temperature yesterday: 71 °F

Past Weeks' High & Low Weather Summary

 TemperatureHumidityPressure
High90 °F (May 18, 2:51 PM)97% (May 19, 11:51 PM)30.45 "Hg (May 19, 11:51 PM)
Low49 °F (May 23, 5:51 AM)27% (May 13, 4:51 PM)29.84 "Hg (May 21, 12:56 PM)
Average71 °F68%30.15 "Hg
* Reported May 10 9:51 AM — May 25 9:51 AM, Durham, Weather by CustomWeather, © 2015

Note: Actual official high and low records may vary slightly from our data, if they occured in-between our weather recording intervals... More about our weather records

Advertising

Durham weather history for previous 24 hours

 ConditionsComfort  
Time TempWeatherWind HumidityBarometerVisibility
9:51 AM
Mon, May 25
74 °FPartly sunny.9 mph62%30.34 "Hg10 mi
8:51 AM71 °FPartly sunny.7 mph68%30.35 "Hg10 mi
7:51 AM66 °FPartly sunny.6 mph78%30.33 "Hg10 mi
6:51 AM60 °FPassing clouds.No wind90%30.34 "Hg10 mi
5:51 AM58 °FPassing clouds.No wind90%30.33 "Hg10 mi
4:51 AM64 °FPassing clouds.No wind75%30.32 "Hg10 mi
3:51 AM65 °FPassing clouds.6 mph76%30.31 "Hg10 mi
2:51 AM64 °FClear.5 mph75%30.32 "Hg10 mi
1:51 AM66 °FPassing clouds.5 mph73%30.32 "Hg10 mi
12:51 AM68 °FPassing clouds.7 mph68%30.33 "Hg10 mi
11:51 PM
Sun, May 24
69 °FPassing clouds.7 mph63%30.32 "Hg10 mi
10:51 PM70 °FPassing clouds.7 mph61%30.32 "Hg10 mi
9:51 PM71 °FPassing clouds.5 mph59%30.31 "Hg10 mi
8:51 PM73 °FScattered clouds.No wind53%30.29 "Hg10 mi
7:51 PM76 °FScattered clouds.6 mph47%30.29 "Hg10 mi
6:51 PM79 °FScattered clouds.10 mph39%30.29 "Hg10 mi
5:51 PM81 °FScattered clouds.5 mph39%30.30 "Hg10 mi
4:51 PM81 °FScattered clouds.5 mph41%30.31 "Hg10 mi
3:51 PM81 °FScattered clouds.8 mph38%30.33 "Hg10 mi
2:51 PM80 °FScattered clouds.3 mph41%30.36 "Hg10 mi
1:51 PM81 °FScattered clouds.6 mph42%30.37 "Hg10 mi
12:51 PM79 °FScattered clouds.7 mph50%30.38 "Hg10 mi
11:51 AM77 °FScattered clouds.9 mph56%30.40 "Hg10 mi
10:51 AM76 °FScattered clouds.10 mph58%30.41 "Hg10 mi
Weather by CustomWeather, © 2015

See weather overviewHow to use our weather pages